Location: Nairn
(57.5833°N, 3.8667°W)
Time: 01:13:05
(UTC+00:00)

Cosmos 1908 Rocket - Pass Details

Date: 07 August 2020
Orbit: 606 x 631 km, 82.5° (Epoch: 27 September)

Event Time Altitude Azimuth Distance (km) Brightness Sun altitude
Exits shadow 00:21:04 30° 172° (S) 1,125 4.3 -16.1°
Maximum altitude 00:23:10 66° 99° (E) 678 3.7 -16.1°
Drops below altitude 10° 00:27:32 10° 17° (NNE) 1,988 7.4 -16.1°
Sets 00:29:46 0° 15° (NNE) 2,894 8.6 -16.1°
